Tracking 30986 objects as of 9-Jul-2025
HD Live streaming from Space Station
objects crossing your sky now

SITRO-AIS-10

Track SITRO-AIS-10 now!
10-day predictions
SITRO-AIS-10 is classified as:


NORAD ID: 57199
Int'l Code: 2023-091AK
Perigee: 491.8 km
Apogee: 504.1 km
Inclination: 97.6 °
Period: 94.4 minutes
Semi major axis: 6868 km
RCS: Unknown
Launch date: June 27, 2023
Source: (TBD)
Launch site: VOSTOCHNY COSMODROME (VOSTO)

Uplink (MHz):
Downlink (MHz): 401.290
Beacon (MHz):
Mode: 2k4 GMSK_USP
Call sign: SC2212
Status: Unknown

Your satellite tracking list
Your tracking list is empty




NASA's NSSDC Master Catalog

Two Line Element Set (TLE):
1 57199U 23091AK  25190.22700828  .00007876  00000-0  31829-3 0  9996
2 57199  97.5579 250.2854 0008907 198.9967 161.0940 15.24989764112273
Source of the keplerian elements: AFSPC